Time,TemperatureF,DewpointF,PressureIn,WindDirection,WindDirectionDegrees,WindSpeedMPH,WindSpeedGustMPH,Humidity,HourlyPrecipIn,Conditions,Clouds,dailyrainin,SoftwareType,DateUTC
2013-09-18 00:08:00,45.8,44.0,30.36,North,6,0.0,0.0,95,0.00,,,0.00,weatherlink.com 1.10,2013-09-18 04:08:00,
2013-09-18 00:24:00,45.5,44.0,30.36,North,6,0.0,0.0,96,0.00,,,0.00,weatherlink.com 1.10,2013-09-18 04:24:00,
2013-09-18 00:40:00,45.2,44.0,30.35,North,6,0.0,0.0,97,0.00,,,0.00,weatherlink.com 1.10,2013-09-18 04:40:00,
2013-09-18 00:56:00,45.4,45.0,30.35,North,6,0.0,0.0,98,0.00,,,0.00,weatherlink.com 1.10,2013-09-18 04:56:00,
2013-09-18 01:13:00,45.7,45.0,30.35,ENE,75,0.0,0.0,96,0.00,,,0.00,weatherlink.com 1.10,2013-09-18 05:13:00,
2013-09-18 01:29:00,46.1,45.0,30.35,East,91,0.0,1.0,95,0.00,,,0.00,weatherlink.com 1.10,2013-09-18 05:29:00,
2013-09-18 01:45:00,46.1,44.0,30.35,East,91,0.0,1.0,94,0.00,,,0.00,weatherlink.com 1.10,2013-09-18 05:45:00,
2013-09-18 02:01:00,46.0,44.0,30.34,East,91,0.0,0.0,93,0.00,,,0.00,weatherlink.com 1.10,2013-09-18 06:01:00,
2013-09-18 02:18:00,46.0,44.0,30.34,East,92,0.0,1.0,93,0.00,,,0.00,weatherlink.com 1.10,2013-09-18 06:18:00,
2013-09-18 02:34:00,46.0,44.0,30.34,East,92,0.0,0.0,93,0.00,,,0.00,weatherlink.com 1.10,2013-09-18 06:34:00,
2013-09-18 02:50:00,45.5,44.0,30.34,East,92,0.0,0.0,93,0.00,,,0.00,weatherlink.com 1.10,2013-09-18 06:50:00,
2013-09-18 03:07:00,44.6,43.0,30.34,East,92,0.0,0.0,94,0.00,,,0.00,weatherlink.com 1.10,2013-09-18 07:07:00,
2013-09-18 03:23:00,44.1,43.0,30.33,East,92,0.0,0.0,95,0.00,,,0.00,weatherlink.com 1.10,2013-09-18 07:23:00,
2013-09-18 03:39:00,44.6,43.0,30.33,East,92,0.0,1.0,95,0.00,,,0.00,weatherlink.com 1.10,2013-09-18 07:39:00,
2013-09-18 03:55:00,44.2,43.0,30.33,East,92,0.0,0.0,95,0.00,,,0.00,weatherlink.com 1.10,2013-09-18 07:55:00,
2013-09-18 04:12:00,44.0,43.0,30.33,East,92,0.0,0.0,95,0.00,,,0.00,weatherlink.com 1.10,2013-09-18 08:12:00,
2013-09-18 04:28:00,43.6,42.0,30.33,East,92,0.0,1.0,95,0.00,,,0.00,weatherlink.com 1.10,2013-09-18 08:28:00,
2013-09-18 04:44:00,43.1,42.0,30.33,East,92,0.0,1.0,96,0.00,,,0.00,weatherlink.com 1.10,2013-09-18 08:44:00,
2013-09-18 05:00:00,42.8,42.0,30.33,East,97,0.0,1.0,96,0.00,,,0.00,weatherlink.com 1.10,2013-09-18 09:00:00,
2013-09-18 05:16:00,42.4,41.0,30.33,East,97,0.0,0.0,96,0.00,,,0.00,weatherlink.com 1.10,2013-09-18 09:16:00,
2013-09-18 05:32:00,42.0,41.0,30.32,East,98,0.0,0.0,96,0.00,,,0.00,weatherlink.com 1.10,2013-09-18 09:32:00,
2013-09-18 05:48:00,41.6,41.0,30.33,East,97,0.0,0.0,97,0.00,,,0.00,weatherlink.com 1.10,2013-09-18 09:48:00,
2013-09-18 06:05:00,41.5,41.0,30.33,East,97,0.0,0.0,97,0.00,,,0.00,weatherlink.com 1.10,2013-09-18 10:05:00,
2013-09-18 06:21:00,41.3,41.0,30.34,East,97,0.0,0.0,97,0.00,,,0.00,weatherlink.com 1.10,2013-09-18 10:21:00,
2013-09-18 06:37:00,41.1,40.0,30.34,East,97,0.0,0.0,97,0.00,,,0.00,weatherlink.com 1.10,2013-09-18 10:37:00,
2013-09-18 06:53:00,41.1,41.0,30.34,East,97,0.0,0.0,98,0.00,,,0.00,weatherlink.com 1.10,2013-09-18 10:53:00,
2013-09-18 07:10:00,41.5,41.0,30.34,East,97,0.0,0.0,98,0.00,,,0.00,weatherlink.com 1.10,2013-09-18 11:10:00,
2013-09-18 07:26:00,41.9,41.0,30.34,East,97,0.0,0.0,97,0.00,,,0.00,weatherlink.com 1.10,2013-09-18 11:26:00,
2013-09-18 07:42:00,42.2,41.0,30.34,East,97,0.0,0.0,97,0.00,,,0.00,weatherlink.com 1.10,2013-09-18 11:42:00,
2013-09-18 07:58:00,42.8,42.0,30.34,East,98,0.0,0.0,98,0.00,,,0.00,weatherlink.com 1.10,2013-09-18 11:58:00,
2013-09-18 08:14:00,43.7,43.0,30.33,East,97,0.0,0.0,98,0.00,,,0.00,weatherlink.com 1.10,2013-09-18 12:14:00,
2013-09-18 08:30:00,45.2,44.0,30.33,East,97,0.0,0.0,97,0.00,,,0.00,weatherlink.com 1.10,2013-09-18 12:30:00,
2013-09-18 08:47:00,47.3,46.0,30.32,East,97,0.0,0.0,96,0.00,,,0.00,weatherlink.com 1.10,2013-09-18 12:47:00,
2013-09-18 09:03:00,49.5,47.0,30.32,East,96,0.0,1.0,91,0.00,,,0.00,weatherlink.com 1.10,2013-09-18 13:03:00,
2013-09-18 09:19:00,51.3,48.0,30.32,NNE,24,1.0,1.0,88,0.00,,,0.00,weatherlink.com 1.10,2013-09-18 13:19:00,
2013-09-18 09:36:00,53.4,49.0,30.32,ESE,118,0.0,2.0,86,0.00,,,0.00,weatherlink.com 1.10,2013-09-18 13:36:00,
2013-09-18 09:52:00,55.1,50.0,30.32,NE,40,0.0,1.0,83,0.00,,,0.00,weatherlink.com 1.10,2013-09-18 13:52:00,
2013-09-18 10:08:00,57.0,51.0,30.31,North,11,0.0,1.0,80,0.00,,,0.00,weatherlink.com 1.10,2013-09-18 14:08:00,
2013-09-18 10:24:00,59.1,52.0,30.31,WNW,291,0.0,1.0,77,0.00,,,0.00,weatherlink.com 1.10,2013-09-18 14:24:00,
2013-09-18 10:40:00,61.2,47.0,30.30,East,98,0.0,1.0,60,0.00,,,0.00,weatherlink.com 1.10,2013-09-18 14:40:00,
2013-09-18 10:57:00,62.8,46.0,30.30,WNW,300,0.0,3.0,55,0.00,,,0.00,weatherlink.com 1.10,2013-09-18 14:57:00,
2013-09-18 11:13:00,63.8,49.0,30.29,WSW,243,0.0,3.0,59,0.00,,,0.00,weatherlink.com 1.10,2013-09-18 15:13:00,
2013-09-18 11:29:00,64.9,48.0,30.29,WSW,248,0.0,2.0,54,0.00,,,0.00,weatherlink.com 1.10,2013-09-18 15:29:00,
2013-09-18 11:46:00,65.9,48.0,30.28,West,281,1.0,2.0,53,0.00,,,0.00,weatherlink.com 1.10,2013-09-18 15:46:00,
2013-09-18 12:02:00,67.4,47.0,30.27,West,261,0.0,3.0,48,0.00,,,0.00,weatherlink.com 1.10,2013-09-18 16:02:00,
2013-09-18 12:18:00,67.6,47.0,30.26,WNW,288,3.0,3.0,47,0.00,,,0.00,weatherlink.com 1.10,2013-09-18 16:18:00,
2013-09-18 12:36:00,68.8,47.0,30.25,WNW,284,0.0,2.0,46,0.00,,,0.00,weatherlink.com 1.10,2013-09-18 16:36:00,
2013-09-18 12:53:00,69.1,50.0,30.25,East,91,0.0,1.0,50,0.00,,,0.00,weatherlink.com 1.10,2013-09-18 16:53:00,
2013-09-18 13:09:00,70.0,48.0,30.25,West,262,0.0,2.0,45,0.00,,,0.00,weatherlink.com 1.10,2013-09-18 17:09:00,
2013-09-18 13:26:00,70.2,52.0,30.24,West,267,0.0,2.0,52,0.00,,,0.00,weatherlink.com 1.10,2013-09-18 17:26:00,
2013-09-18 13:42:00,70.7,52.0,30.24,South,169,0.0,3.0,51,0.00,,,0.00,weatherlink.com 1.10,2013-09-18 17:42:00,
2013-09-18 13:58:00,71.4,49.0,30.23,ESE,118,1.0,2.0,45,0.00,,,0.00,weatherlink.com 1.10,2013-09-18 17:58:00,
2013-09-18 14:13:00,71.2,48.0,30.22,West,264,0.0,2.0,43,0.00,,,0.00,weatherlink.com 1.10,2013-09-18 18:13:00,
2013-09-18 14:28:00,72.0,49.0,30.21,ESE,120,0.0,2.0,44,0.00,,,0.00,weatherlink.com 1.10,2013-09-18 18:28:00,
2013-09-18 14:42:00,72.8,48.0,30.21,NNE,21,0.0,2.0,41,0.00,,,0.00,weatherlink.com 1.10,2013-09-18 18:42:00,
2013-09-18 14:57:00,72.6,51.0,30.20,SE,146,0.0,1.0,46,0.00,,,0.00,weatherlink.com 1.10,2013-09-18 18:57:00,
2013-09-18 15:12:00,74.6,52.0,30.20,ESE,112,0.0,2.0,45,0.00,,,0.00,weatherlink.com 1.10,2013-09-18 19:12:00,
2013-09-18 15:29:00,74.8,47.0,30.19,West,261,1.0,2.0,38,0.00,,,0.00,weatherlink.com 1.10,2013-09-18 19:29:00,
2013-09-18 15:47:00,73.8,50.0,30.18,SE,141,0.0,3.0,43,0.00,,,0.00,weatherlink.com 1.10,2013-09-18 19:47:00,
2013-09-18 16:03:00,74.5,49.0,30.18,WNW,293,0.0,2.0,40,0.00,,,0.00,weatherlink.com 1.10,2013-09-18 20:03:00,
2013-09-18 16:17:00,75.6,50.0,30.17,WSW,250,0.0,4.0,40,0.00,,,0.00,weatherlink.com 1.10,2013-09-18 20:17:00,
2013-09-18 16:32:00,75.5,51.0,30.17,WSW,258,0.0,2.0,43,0.00,,,0.00,weatherlink.com 1.10,2013-09-18 20:32:00,
2013-09-18 16:46:00,75.8,50.0,30.17,SE,138,0.0,1.0,40,0.00,,,0.00,weatherlink.com 1.10,2013-09-18 20:46:00,
2013-09-18 17:01:00,76.5,52.0,30.16,SSW,195,0.0,1.0,43,0.00,,,0.00,weatherlink.com 1.10,2013-09-18 21:01:00,
2013-09-18 17:17:00,76.8,51.0,30.16,West,273,0.0,2.0,40,0.00,,,0.00,weatherlink.com 1.10,2013-09-18 21:17:00,
2013-09-18 17:33:00,76.6,52.0,30.16,WSW,258,0.0,2.0,42,0.00,,,0.00,weatherlink.com 1.10,2013-09-18 21:33:00,
2013-09-18 17:49:00,75.9,50.0,30.16,West,266,0.0,1.0,40,0.00,,,0.00,weatherlink.com 1.10,2013-09-18 21:49:00,
2013-09-18 18:06:00,74.6,51.0,30.16,WSW,252,0.0,1.0,44,0.00,,,0.00,weatherlink.com 1.10,2013-09-18 22:06:00,
2013-09-18 18:24:00,72.6,53.0,30.16,WSW,252,0.0,0.0,50,0.00,,,0.00,weatherlink.com 1.10,2013-09-18 22:24:00,
2013-09-18 18:40:00,70.2,53.0,30.16,WSW,252,0.0,0.0,55,0.00,,,0.00,weatherlink.com 1.10,2013-09-18 22:40:00,
2013-09-18 18:56:00,66.5,54.0,30.16,WSW,252,0.0,0.0,64,0.00,,,0.00,weatherlink.com 1.10,2013-09-18 22:56:00,
2013-09-18 19:12:00,63.6,54.0,30.16,WSW,252,0.0,0.0,70,0.00,,,0.00,weatherlink.com 1.10,2013-09-18 23:12:00,
2013-09-18 19:29:00,61.5,52.0,30.16,WSW,252,0.0,0.0,72,0.00,,,0.00,weatherlink.com 1.10,2013-09-18 23:29:00,
2013-09-18 19:45:00,60.0,53.0,30.16,WSW,252,0.0,0.0,79,0.00,,,0.00,weatherlink.com 1.10,2013-09-18 23:45:00,
2013-09-18 20:01:00,58.9,54.0,30.16,WSW,252,0.0,0.0,83,0.00,,,0.00,weatherlink.com 1.10,2013-09-19 00:01:00,
2013-09-18 20:17:00,58.0,54.0,30.16,WSW,252,0.0,0.0,85,0.00,,,0.00,weatherlink.com 1.10,2013-09-19 00:17:00,
2013-09-18 20:34:00,57.3,54.0,30.17,WSW,252,0.0,0.0,88,0.00,,,0.00,weatherlink.com 1.10,2013-09-19 00:34:00,
2013-09-18 20:50:00,56.8,54.0,30.17,WSW,252,0.0,0.0,89,0.00,,,0.00,weatherlink.com 1.10,2013-09-19 00:50:00,
2013-09-18 21:06:00,56.4,54.0,30.17,WSW,252,0.0,0.0,90,0.00,,,0.00,weatherlink.com 1.10,2013-09-19 01:06:00,
2013-09-18 21:20:00,55.6,52.0,30.17,WSW,252,0.0,0.0,89,0.00,,,0.00,weatherlink.com 1.10,2013-09-19 01:20:00,
2013-09-18 21:34:00,55.2,53.0,30.17,WSW,252,0.0,0.0,92,0.00,,,0.00,weatherlink.com 1.10,2013-09-19 01:34:00,
2013-09-18 21:49:00,55.4,53.0,30.17,WSW,252,0.0,0.0,91,0.00,,,0.00,weatherlink.com 1.10,2013-09-19 01:49:00,
2013-09-18 22:03:00,55.2,52.0,30.16,WSW,252,0.0,0.0,89,0.00,,,0.00,weatherlink.com 1.10,2013-09-19 02:03:00,
2013-09-18 22:19:00,55.0,52.0,30.16,WSW,252,0.0,0.0,89,0.00,,,0.00,weatherlink.com 1.10,2013-09-19 02:19:00,
2013-09-18 22:35:00,54.3,51.0,30.16,WSW,252,0.0,0.0,89,0.00,,,0.00,weatherlink.com 1.10,2013-09-19 02:35:00,
2013-09-18 22:51:00,54.3,51.0,30.16,WSW,252,0.0,0.0,90,0.00,,,0.00,weatherlink.com 1.10,2013-09-19 02:51:00,
2013-09-18 23:24:00,54.1,51.0,30.16,WSW,252,0.0,0.0,89,0.00,,,0.00,weatherlink.com 1.10,2013-09-19 03:24:00,
2013-09-18 23:40:00,53.9,51.0,30.16,WSW,252,0.0,0.0,89,0.00,,,0.00,weatherlink.com 1.10,2013-09-19 03:40:00,
2013-09-18 23:56:00,53.1,50.0,30.16,WSW,252,0.0,0.0,89,0.00,,,0.00,weatherlink.com 1.10,2013-09-19 03:56:00,